DW4360 Weather Reports


time (UTC)temp
C
wind
direction
speed
KPH
gust
KPH
rain 1hr
cm
rain 24hr
cm
rain mn
cm
humidity
%
barometer
mb
20240614114730 8 319 0.0 0.0 0.00 0.00 0.00 83 1021.0
20240614113729 8 319 0.0 0.0 0.00 0.00 0.00 83 1020.9
20240614112727 8 319 0.0 0.0 0.00 0.00 0.00 82 1020.8
20240614111726 9 319 0.0 0.0 0.00 0.00 0.00 82 1020.8
20240614110725 9 319 0.0 0.0 0.00 0.00 0.00 81 1020.8
20240614105724 9 319 0.0 0.0 0.00 0.00 0.00 81 1020.7
20240614104723 10 319 0.0 0.0 0.00 0.00 0.00 80 1020.9
20240614103723 10 319 0.0 0.0 0.00 0.00 0.00 80 1020.9
20240614102721 10 319 0.0 0.0 0.00 0.00 0.00 80 1020.8
20240614101720 10 319 0.0 0.0 0.00 0.00 0.00 79 1020.8
20240614100719 10 319 0.0 0.0 0.00 0.00 0.00 79 1020.7
20240614095718 10 319 0.0 0.0 0.00 0.00 0.00 78 1020.7
20240614094717 10 319 0.0 0.0 0.00 0.00 0.00 78 1020.7
20240614093716 10 319 0.0 0.0 0.00 0.00 0.00 76 1020.6
20240614092715 10 319 0.0 0.0 0.00 0.00 0.00 75 1020.5
20240614091714 11 319 0.0 0.0 0.00 0.00 0.00 74 1020.5
20240614090713 11 319 0.0 0.0 0.00 0.00 0.00 73 1020.5
20240614085712 11 319 0.0 0.0 0.00 0.00 0.00 71 1020.5
20240614083710 12 319 0.0 0.0 0.00 0.00 0.00 69 1020.3
20240614081708 12 319 0.0 0.0 0.00 0.00 0.00 67 1020.2
20240614080707 12 319 0.0 0.0 0.00 0.00 0.00 66 1020.2
20240614074705 12 329 0.0 0.0 0.00 0.00 0.00 63 1020.2
20240614073704 12 329 0.0 0.0 0.00 0.00 0.00 62 1020.1
20240614072703 13 318 6.4 0.0 0.00 0.00 0.00 61 1020.1
20240614071702 13 317 8.0 0.0 0.00 0.00 0.00 60 1020.0
20240614070701 13 325 8.0 0.0 0.00 0.00 0.00 58 1019.9
20240614065700 13 323 0.0 0.0 0.00 0.00 0.00 56 1019.8
20240614064659 14 317 4.8 0.0 0.00 0.00 0.00 54 1019.6
20240614063658 14 317 0.0 0.0 0.00 0.00 0.00 52 1019.3
20240614062657 14 315 0.0 0.0 0.00 0.00 0.00 50 1019.2
20240614060655 15 315 0.0 0.0 0.00 0.00 0.00 47 1019.0
20240614053652 16 306 0.0 0.0 0.00 0.00 0.00 45 1018.4
20240614052651 16 315 0.0 0.0 0.00 0.00 0.00 45 1018.4
20240614051650 16 315 1.6 0.0 0.00 0.00 0.00 43 1018.2
20240614050649 16 320 0.0 0.0 0.00 0.00 0.00 44 1018.2
20240614045648 16 320 0.0 0.0 0.00 0.00 0.00 44 1017.9
20240614044647 16 325 8.0 0.0 0.00 0.00 0.00 44 1017.8
20240614043646 16 331 1.6 0.0 0.00 0.00 0.00 43 1017.6
20240614042644 16 301 0.0 0.0 0.00 0.00 0.00 46 1017.4
20240614035642 17 315 1.6 0.0 0.00 0.00 0.00 46 1017.3
20240614034641 17 313 0.0 0.0 0.00 0.00 0.00 46 1017.2
20240614033640 17 306 0.0 0.0 0.00 0.00 0.00 45 1017.3
20240614032638 18 326 6.4 0.0 0.00 0.00 0.00 45 1017.1
20240614031637 18 333 0.0 0.0 0.00 0.00 0.00 45 1017.1
20240614030636 18 308 8.0 0.0 0.00 0.00 0.00 45 1017.0
20240614025636 18 313 0.0 0.0 0.00 0.00 0.00 49 1017.0
20240614024634 18 300 11.3 0.0 0.00 0.00 0.00 51 1016.9
20240614022632 19 300 4.8 0.0 0.00 0.00 0.00 51 1016.8
20240614021632 19 302 8.0 0.0 0.00 0.00 0.00 50 1016.6
20240614020630 20 329 14.5 0.0 0.00 0.00 0.00 50 1016.7
20240614015630 20 317 6.4 0.0 0.00 0.00 0.00 50 1016.4
20240614014628 20 301 11.3 0.0 0.00 0.00 0.00 50 1016.1
20240614013628 20 329 0.0 0.0 0.00 0.00 0.00 50 1016.0
20240614012626 21 323 0.0 0.0 0.00 0.00 0.00 50 1015.9
20240614011625 21 297 0.0 0.0 0.00 0.00 0.00 49 1015.8
20240614010624 21 325 0.0 0.0 0.00 0.00 0.00 49 1015.7
20240614005623 21 319 6.4 0.0 0.00 0.00 0.00 47 1015.5
20240614004622 22 318 0.0 0.0 0.00 0.00 0.00 46 1015.5
20240614003621 22 301 0.0 0.0 0.00 0.00 0.00 44 1015.5
20240614002620 22 321 0.0 0.0 0.00 0.00 0.00 44 1015.4
20240614001619 23 316 0.0 0.0 0.00 0.00 0.00 43 1015.3
20240614000618 23 306 0.0 0.0 0.00 0.00 0.00 43 1015.1
20240613235617 23 327 0.0 0.0 0.00 0.00 0.00 42 1015.1
20240613234617 23 317 0.0 0.0 0.00 0.00 0.00 42 1015.1
20240613233615 23 5 0.0 0.0 0.00 0.00 0.00 40 1015.0
20240613232614 23 314 0.0 0.0 0.00 0.00 0.00 39 1015.1
20240613230612 25 293 0.0 0.0 0.00 0.00 0.00 36 1015.0
20240613225611 26 319 0.0 0.0 0.00 0.00 0.00 38 1014.9
20240613223609 26 311 0.0 0.0 0.00 0.00 0.00 36 1015.0
20240613222608 26 312 3.2 0.0 0.00 0.00 0.00 36 1015.3
20240613221607 26 330 0.0 0.0 0.00 0.00 0.00 36 1015.3
20240613220606 26 309 0.0 0.0 0.00 0.00 0.00 37 1015.3
20240613215605 26 331 0.0 0.0 0.00 0.00 0.00 36 1015.4
20240613214604 25 330 0.0 0.0 0.00 0.00 0.00 37 1015.3
20240613212602 25 336 1.6 0.0 0.00 0.00 0.00 36 1015.5
20240613211601 25 14 0.0 0.0 0.00 0.00 0.00 39 1015.6
20240613210600 24 322 0.0 0.0 0.00 0.00 0.00 41 1015.6
20240613205559 24 319 0.0 0.0 0.00 0.00 0.00 41 1015.8
20240613203557 24 324 0.0 0.0 0.00 0.00 0.00 42 1015.9
20240613202556 23 313 8.0 0.0 0.00 0.00 0.00 44 1016.1
20240613201555 23 317 8.0 0.0 0.00 0.00 0.00 45 1016.1
20240613200554 22 312 0.0 0.0 0.00 0.00 0.00 46 1016.2
20240613195553 22 308 9.7 0.0 0.00 0.00 0.00 46 1016.3
20240613192550 21 309 11.3 0.0 0.00 0.00 0.00 48 1016.5
20240613191549 21 312 11.3 0.0 0.00 0.00 0.00 48 1016.5
20240613190548 21 313 9.7 0.0 0.00 0.00 0.00 47 1016.6
20240613184546 21 323 0.0 0.0 0.00 0.00 0.00 49 1016.6
20240613183545 20 310 0.0 0.0 0.00 0.00 0.00 52 1016.7
20240613181543 20 295 0.0 0.0 0.00 0.00 0.00 54 1016.8
20240613180542 19 342 3.2 0.0 0.00 0.00 0.00 55 1016.9
20240613175541 18 360 0.0 0.0 0.00 0.00 0.00 58 1016.9
20240613174540 17 315 0.0 0.0 0.00 0.00 0.00 60 1016.9
20240613173539 16 304 0.0 0.0 0.00 0.00 0.00 64 1017.0
20240613172538 15 340 0.0 0.0 0.00 0.00 0.00 66 1017.1
20240613171537 15 320 0.0 0.0 0.00 0.00 0.00 65 1017.2
20240613170536 15 323 1.6 0.0 0.00 0.00 0.00 68 1017.1
20240613165535 14 331 0.0 0.0 0.00 0.00 0.00 69 1017.1
20240613164534 14 325 0.0 0.0 0.00 0.00 0.00 70 1017.2
20240613163533 13 313 0.0 0.0 0.00 0.00 0.00 70 1017.3
20240613162532 13 321 0.0 0.0 0.00 0.00 0.00 70 1017.4
20240613161531 13 327 0.0 0.0 0.00 0.00 0.00 71 1017.5
20240613160529 13 325 3.2 0.0 0.00 0.00 0.00 71 1017.5
20240613155528 13 312 0.0 0.0 0.00 0.00 0.00 73 1017.5
20240613154528 13 325 0.0 0.0 0.00 0.00 0.00 73 1017.4
20240613152525 12 327 4.8 0.0 0.00 0.00 0.00 74 1017.5
20240613151525 12 311 4.8 0.0 0.00 0.00 0.00 74 1017.5
20240613150524 12 302 0.0 0.0 0.00 0.00 0.00 75 1017.5
20240613144522 11 321 0.0 0.0 0.00 0.00 0.00 77 1017.8
20240613142520 11 304 0.0 0.0 0.00 0.00 0.00 80 1017.6
20240613141518 11 309 0.0 0.0 0.00 0.00 0.00 80 1017.4
20240613135516 10 309 0.0 0.0 0.00 0.00 0.00 81 1017.4
20240613134516 10 310 0.0 0.0 0.00 0.00 0.00 82 1017.4
20240613133514 10 310 0.0 0.0 0.00 0.00 0.00 82 1017.4
20240613132514 10 310 0.0 0.0 0.00 0.00 0.00 82 1017.4
20240613131512 10 310 0.0 0.0 0.00 0.00 0.00 82 1017.3
20240613130511 10 310 0.0 0.0 0.00 0.00 0.00 81 1017.3
20240613125510 10 310 0.0 0.0 0.00 0.00 0.00 80 1017.3
20240613124509 10 310 0.0 0.0 0.00 0.00 0.00 80 1017.3
20240613123508 10 310 0.0 0.0 0.00 0.00 0.00 79 1017.3
20240613122507 11 310 0.0 0.0 0.00 0.00 0.00 78 1017.3
20240613120505 11 310 0.0 0.0 0.00 0.00 0.00 77 1017.3
20240613115504 11 310 0.0 0.0 0.00 0.00 0.00 77 1017.2